• In Deutschland
  • Länderverzeichnis
  • Für 7 Tage
  • Wassertemperatur
  • Satellitenkarten
  • Wetterkarte
  • Widgets
  • user-avatar
    Anmelden

    Stündliche Wetter Bregenz

    Heute, 25 September, Montag

    Zeit Temperatur Niederschläge Wind Luftdruck Luftfeuchtigkeit
    00:00 +5°C° 0 mm 1 m/S 648 mmHg 88%
    01:00 +5°C° 0 mm 1 m/S 648 mmHg 87%
    02:00 +5°C° 0 mm 1 m/S 647 mmHg 86%
    03:00 +4°C° 0 mm 1 m/S 647 mmHg 85%
    04:00 +4°C° 0 mm 1 m/S 647 mmHg 84%
    05:00 +4°C° 0 mm 1 m/S 647 mmHg 83%
    06:00 +5°C° 0 mm 1 m/S 647 mmHg 82%
    07:00 +5°C° 0 mm 1 m/S 647 mmHg 81%
    08:00 +7°C° 0 mm 1 m/S 648 mmHg 73%
    09:00 +10°C° 0 mm 1 m/S 648 mmHg 65%
    10:00 +11°C° 0 mm 0 m/S 649 mmHg 58%
    11:00 +13°C° 0 mm 1 m/S 649 mmHg 54%
    12:00 +14°C° 0 mm 1 m/S 649 mmHg 51%
    13:00 +15°C° 0 mm 1 m/S 649 mmHg 47%
    14:00 +15°C° 0 mm 1 m/S 648 mmHg 50%
    15:00 +14°C° 0 mm 1 m/S 648 mmHg 52%
    16:00 +14°C° 0 mm 1 m/S 648 mmHg 55%
    17:00 +12°C° 0 mm 1 m/S 648 mmHg 65%
    18:00 +9°C° 0 mm 1 m/S 647 mmHg 75%
    19:00 +7°C° 0 mm 1 m/S 647 mmHg 86%
    20:00 +7°C° 0 mm 1 m/S 647 mmHg 86%
    21:00 +6°C° 0 mm 1 m/S 647 mmHg 87%
    22:00 +6°C° 0 mm 1 m/S 647 mmHg 87%
    23:00 +6°C° 0 mm 1 m/S 647 mmHg 86%

    Morgen, 26 September, Dienstag

    Zeit Temperatur Niederschläge Wind Luftdruck Luftfeuchtigkeit
    00:00 +6°C° 0 mm 1 m/S 647 mmHg 86%
    01:00 +6°C° 0 mm 1 m/S 647 mmHg 85%
    02:00 +5°C° 0 mm 1 m/S 647 mmHg 85%
    03:00 +5°C° 0 mm 1 m/S 647 mmHg 85%
    04:00 +5°C° 0 mm 1 m/S 647 mmHg 85%
    05:00 +5°C° 0 mm 1 m/S 647 mmHg 84%
    06:00 +6°C° 0 mm 1 m/S 648 mmHg 84%
    07:00 +6°C° 0 mm 1 m/S 648 mmHg 83%
    08:00 +8°C° 0 mm 1 m/S 649 mmHg 76%
    09:00 +10°C° 0 mm 0 m/S 649 mmHg 69%
    10:00 +12°C° 0 mm 0 m/S 650 mmHg 61%
    11:00 +14°C° 0 mm 1 m/S 650 mmHg 59%
    12:00 +14°C° 0 mm 1 m/S 650 mmHg 57%
    13:00 +15°C° 0 mm 1 m/S 650 mmHg 55%
    14:00 +14°C° 0,2 mm 1 m/S 650 mmHg 61%
    15:00 +14°C° 0,2 mm 1 m/S 650 mmHg 67%
    16:00 +13°C° 0,2 mm 1 m/S 650 mmHg 72%
    17:00 +11°C° 0,2 mm 1 m/S 649 mmHg 79%
    18:00 +10°C° 0,2 mm 1 m/S 649 mmHg 86%
    19:00 +8°C° 0,2 mm 1 m/S 649 mmHg 92%
    20:00 +8°C° 0,1 mm 1 m/S 649 mmHg 93%
    21:00 +8°C° 0,1 mm 1 m/S 649 mmHg 93%
    22:00 +8°C° 0,1 mm 1 m/S 650 mmHg 93%
    23:00 +8°C° 0,1 mm 1 m/S 650 mmHg 92%

    übermorgen, 27 September, Mittwoch

    Zeit Temperatur Niederschläge Wind Luftdruck Luftfeuchtigkeit
    00:00 +8°C° 0,1 mm 1 m/S 650 mmHg 92%
    01:00 +8°C° 0,1 mm 1 m/S 650 mmHg 92%
    02:00 +7°C° 0 mm 1 m/S 649 mmHg 92%
    03:00 +7°C° 0 mm 1 m/S 649 mmHg 92%
    04:00 +7°C° 0 mm 1 m/S 649 mmHg 92%
    05:00 +7°C° 0 mm 1 m/S 649 mmHg 91%
    06:00 +7°C° 0 mm 1 m/S 650 mmHg 91%
    07:00 +7°C° 0 mm 1 m/S 650 mmHg 91%
    08:00 +9°C° 0 mm 1 m/S 650 mmHg 83%
    09:00 +10°C° 0 mm 0 m/S 651 mmHg 76%
    10:00 +13°C° 0 mm 0 m/S 651 mmHg 69%
    11:00 +14°C° 0,1 mm 1 m/S 651 mmHg 66%
    12:00 +15°C° 0,1 mm 1 m/S 652 mmHg 64%
    13:00 +16°C° 0,1 mm 1 m/S 652 mmHg 62%
    14:00 +15°C° 0,5 mm 1 m/S 651 mmHg 65%
    15:00 +15°C° 0,5 mm 1 m/S 651 mmHg 69%
    16:00 +14°C° 0,5 mm 1 m/S 651 mmHg 72%
    17:00 +13°C° 0,2 mm 1 m/S 651 mmHg 78%
    18:00 +11°C° 0,2 mm 1 m/S 650 mmHg 83%
    19:00 +9°C° 0,2 mm 1 m/S 650 mmHg 89%
    20:00 +9°C° 0 mm 1 m/S 650 mmHg 89%
    21:00 +8°C° 0 mm 1 m/S 650 mmHg 90%
    22:00 +8°C° 0 mm 1 m/S 650 mmHg 90%
    23:00 +6°C° 0 mm 2 m/S 650 mmHg 90%

    28 September, Donnerstag

    Zeit Temperatur Niederschläge Wind Luftdruck Luftfeuchtigkeit
    00:00 +6°C° 0 mm 2 m/S 650 mmHg 90%
    01:00 +6°C° 0 mm 2 m/S 650 mmHg 90%
    02:00 +6°C° 0 mm 2 m/S 650 mmHg 89%
    03:00 +6°C° 0 mm 2 m/S 650 mmHg 89%
    04:00 +6°C° 0 mm 1 m/S 650 mmHg 88%
    05:00 +7°C° 0 mm 1 m/S 650 mmHg 87%
    06:00 +7°C° 0 mm 1 m/S 650 mmHg 86%
    07:00 +7°C° 0 mm 1 m/S 650 mmHg 85%
    08:00 +10°C° 0 mm 1 m/S 651 mmHg 77%
    09:00 +12°C° 0 mm 1 m/S 652 mmHg 68%
    10:00 +14°C° 0 mm 0 m/S 652 mmHg 59%
    11:00 +15°C° 0 mm 1 m/S 652 mmHg 57%
    12:00 +16°C° 0 mm 1 m/S 652 mmHg 56%
    13:00 +18°C° 0 mm 1 m/S 652 mmHg 54%
    14:00 +16°C° 0,1 mm 1 m/S 652 mmHg 59%
    15:00 +15°C° 0,1 mm 1 m/S 652 mmHg 65%
    16:00 +15°C° 0,1 mm 1 m/S 652 mmHg 70%
    17:00 +13°C° 0,1 mm 1 m/S 651 mmHg 76%
    18:00 +12°C° 0,1 mm 1 m/S 651 mmHg 82%
    19:00 +10°C° 0,1 mm 1 m/S 651 mmHg 88%
    20:00 +9°C° 0 mm 1 m/S 651 mmHg 89%
    21:00 +9°C° 0 mm 1 m/S 651 mmHg 90%
    22:00 +8°C° 0 mm 1 m/S 651 mmHg 91%
    23:00 +8°C° 0 mm 1 m/S 650 mmHg 90%

    29 September, Freitag

    Zeit Temperatur Niederschläge Wind Luftdruck Luftfeuchtigkeit
    00:00 +8°C° 0 mm 1 m/S 650 mmHg 89%
    01:00 +7°C° 0 mm 1 m/S 650 mmHg 87%
    02:00 +7°C° 0 mm 1 m/S 650 mmHg 86%
    03:00 +7°C° 0 mm 1 m/S 649 mmHg 85%
    04:00 +7°C° 0 mm 1 m/S 649 mmHg 83%
    05:00 +7°C° 0 mm 1 m/S 649 mmHg 82%
    06:00 +7°C° 0 mm 1 m/S 649 mmHg 81%
    07:00 +7°C° 0 mm 1 m/S 649 mmHg 80%
    08:00 +9°C° 0 mm 1 m/S 650 mmHg 73%
    09:00 +11°C° 0 mm 0 m/S 651 mmHg 66%
    10:00 +13°C° 0 mm 0 m/S 651 mmHg 59%
    11:00 +15°C° 0 mm 1 m/S 651 mmHg 57%
    12:00 +16°C° 0 mm 1 m/S 651 mmHg 56%
    13:00 +16°C° 0 mm 1 m/S 651 mmHg 54%
    14:00 +16°C° 0,1 mm 1 m/S 651 mmHg 59%
    15:00 +15°C° 0,1 mm 1 m/S 650 mmHg 64%
    16:00 +15°C° 0,1 mm 1 m/S 650 mmHg 68%
    17:00 +13°C° 0,1 mm 1 m/S 650 mmHg 76%
    18:00 +11°C° 0,1 mm 1 m/S 649 mmHg 84%
    19:00 +9°C° 0,1 mm 1 m/S 649 mmHg 92%
    20:00 +8°C° 0 mm 1 m/S 649 mmHg 92%
    21:00 +8°C° 0 mm 1 m/S 649 mmHg 92%
    22:00 +8°C° 0 mm 1 m/S 649 mmHg 93%
    23:00 +7°C° 0 mm 1 m/S 648 mmHg 92%

    30 September, Samstag

    Zeit Temperatur Niederschläge Wind Luftdruck Luftfeuchtigkeit
    00:00 +7°C° 0 mm 1 m/S 648 mmHg 92%
    01:00 +7°C° 0 mm 1 m/S 648 mmHg 91%
    02:00 +7°C° 0 mm 1 m/S 648 mmHg 91%
    03:00 +6°C° 0 mm 1 m/S 648 mmHg 91%
    04:00 +6°C° 0 mm 1 m/S 647 mmHg 91%
    05:00 +6°C° 0 mm 1 m/S 647 mmHg 91%
    06:00 +6°C° 0 mm 1 m/S 648 mmHg 90%
    07:00 +6°C° 0 mm 1 m/S 648 mmHg 90%
    08:00 +9°C° 0 mm 1 m/S 648 mmHg 82%
    09:00 +11°C° 0 mm 1 m/S 649 mmHg 75%
    10:00 +13°C° 0 mm 1 m/S 649 mmHg 67%
    11:00 +14°C° 0 mm 1 m/S 649 mmHg 65%
    12:00 +15°C° 0 mm 1 m/S 649 mmHg 62%
    13:00 +15°C° 0 mm 1 m/S 649 mmHg 59%
    14:00 +15°C° 0,2 mm 1 m/S 649 mmHg 62%
    15:00 +15°C° 0,2 mm 1 m/S 648 mmHg 66%
    16:00 +14°C° 0,2 mm 1 m/S 648 mmHg 69%
    17:00 +12°C° 0,2 mm 1 m/S 648 mmHg 77%
    18:00 +10°C° 0,2 mm 1 m/S 647 mmHg 85%
    19:00 +9°C° 0,2 mm 1 m/S 647 mmHg 93%
    20:00 +8°C° 0 mm 1 m/S 647 mmHg 93%
    21:00 +8°C° 0 mm 1 m/S 647 mmHg 94%
    22:00 +8°C° 0 mm 1 m/S 647 mmHg 94%
    23:00 +7°C° 0 mm 1 m/S 647 mmHg 94%
    Mehr zeigen